Flag for Burkina Faso Weather past 2 weeks in Koudougou, Burkina Faso

Now
75 °F

Passing clouds.


Feels Like: 75 °F
Forecast: 75 / 86 °F
Wind: 7 mph from Southwest

Location: Ouagadougou Airport

Current Time: Aug 2, 2014 at 5:14:15 AM

Latest Report: Aug 2, 2014 at 4:00 AM


Visibility: N/A

Pressure: 29.92 "Hg

Humidity: 83%

Dew point: 70 °F

Location of KoudougouLocation

Historic Weather in Koudougou — Graph

°F

Koudougou temperature yesterday

Maximum temperature yesterday: 90 °F (at 3:00 PM)
Minimum temperature yesterday: 77 °F (at 6:00 AM)
Average temperature yesterday: 82 °F

Past Weeks' High & Low Weather Summary

 TemperatureHumidityPressure
High93 °F (Jul 21, 2:00 PM)100% (Jul 19, 2:00 AM)30.12 "Hg (Jul 19, 2:00 AM)
Low70 °F (Jul 24, 5:00 AM)49% (Jul 27, 3:00 PM)29.86 "Hg (Jul 26, 4:00 PM)
Average82 °F78%29.96 "Hg
* Reported Jul 18 4:00 AM — Aug 2 4:00 AM, Koudougou, Weather by CustomWeather, © 2014

Note: Actual official high and low records may vary slightly from our data, if they occured in-between our weather recording intervals... More about our weather records

Advertising

Koudougou weather history for previous 24 hours

 ConditionsComfort  
Time TempWeatherWind HumidityBarometerVisibility
4:00 AM
Aug 2
75 °FPassing clouds.7 mph83%29.92 "HgN/A
3:00 AM75 °FPassing clouds.7 mph83%29.92 "HgN/A
2:00 AM75 °FPassing clouds.6 mph83%29.92 "HgN/A
1:00 AM75 °FThunderstorms. Passing clouds.7 mph89%29.95 "HgN/A
12:00 AM77 °FThunderstorms. Passing clouds.8 mph83%29.95 "HgN/A
11:00 PM
Aug 1
77 °FThunderstorms. Partly cloudy.9 mph83%29.98 "HgN/A
10:00 PM77 °FThunderstorms. Partly cloudy.9 mph83%29.98 "HgN/A
9:00 PM77 °FThunderstorms. Partly cloudy.10 mph83%29.95 "HgN/A
8:00 PM79 °FThunderstorms. Partly cloudy.18 mph74%29.95 "HgN/A
7:00 PM86 °FThunderstorms. Partly cloudy.3 mph75%29.89 "HgN/A
6:00 PM88 °FBroken clouds.5 mph66%29.89 "HgN/A
5:00 PM90 °FBroken clouds.5 mph63%29.89 "HgN/A
4:00 PM90 °FBroken clouds.7 mph67%29.89 "HgN/A
3:00 PM90 °FBroken clouds.8 mph67%29.89 "HgN/A
2:00 PM88 °FBroken clouds.8 mph66%29.92 "HgN/A
1:00 PM88 °FBroken clouds.7 mph66%29.95 "HgN/A
12:00 PM88 °FBroken clouds.12 mph66%29.95 "HgN/A
11:00 AM86 °FPartly sunny.16 mph70%29.95 "HgN/A
10:00 AM84 °FPartly sunny.17 mph74%29.95 "HgN/A
9:00 AM81 °FPartly sunny.15 mph84%29.98 "Hg5 mi
8:00 AM79 °FLight rain. Partly sunny.9 mph94%29.95 "Hg5 mi
7:00 AM77 °FLight rain. Partly sunny.2 mph94%29.98 "HgN/A
6:00 AM77 °FPartly sunny.3 mph94%29.98 "HgN/A
5:00 AM79 °FPassing clouds.6 mph89%29.98 "HgN/A
Weather by CustomWeather, © 2014

See weather overviewHow to use our weather pages